{"data":{"norad_id":55152,"intl_designator":"2023-004N","name":"ONEWEB-0573","alt_names":[],"object_type":"PAYLOAD","status":"ACTIVE","operator":null,"country":"UK","launch_date":"2023-01-10","launch_site_code":"AFETR","launch_vehicle":null,"mission":null,"orbit_class":"UNKNOWN","rcs_meters":null,"size_class":null,"mass_kg":null,"dimensions":null,"purposes":["comms"],"wikipedia_slug":null,"has_3d_model":false,"image_url":null,"decayed_at":null,"tle_current":{"epoch":"2026-09-20T02:41:48.140736Z","epoch_age_seconds":55171,"freshness":"FRESH","line1":"1 55152U 23004N   26263.11236274  .00000054  00000+0  10494-3 0  9991","line2":"2 55152  87.9156 316.6034 0001090 101.8900 258.2354 13.18687473182208","mean_motion":13.18687473,"eccentricity":0.000109,"inclination_deg":87.9156,"raan_deg":316.6034,"arg_perigee_deg":101.89,"mean_anomaly_deg":258.2354,"bstar":0.00010494,"rev_number":18220,"period_min":109.19949036325,"perigee_km":1188.9125928985,"apogee_km":1190.5623895376,"semimajor_km":7567.874491218,"source":"CELESTRAK","updated_at":"2026-09-20T09:00:44.752495Z"}}}